EAG56B EGAC-EGPH

Flight info

Callsign EAG56B
Flight time 0h 46m
Altitude 17000
Route DCT MAGEE DCT BLACA P600 GIRVA GIRVA1E
Aircraft AT76/M-SDFGIRY/S

Departure

Time 2026-04-23 15:49
Airport George Best Belfast City Airport (EGAC)

Arrival

Time 2026-04-23 16:36
Airport Edinburgh Airport (EGPH)
Time Latitude Longitude Altitude Speed Heading
2026-04-23 15:28 54.61382 -5.87290 21 ft 0 kts 124°
2026-04-23 15:37 54.61383 -5.87292 21 ft 2 kts 125°
2026-04-23 15:38 54.61400 -5.87323 20 ft 4 kts 152°
2026-04-23 15:38 54.61424 -5.87335 21 ft 4 kts 186°
2026-04-23 15:38 54.61448 -5.87322 21 ft 2 kts 214°
2026-04-23 15:38 54.61450 -5.87320 21 ft 0 kts 215°
2026-04-23 15:46 54.61413 -5.87376 20 ft 10 kts 231°
2026-04-23 15:47 54.61363 -5.87468 20 ft 10 kts 215°
2026-04-23 15:47 54.61305 -5.87537 20 ft 10 kts 217°
2026-04-23 15:47 54.61244 -5.87610 19 ft 14 kts 214°
2026-04-23 15:47 54.61160 -5.87709 19 ft 14 kts 214°
2026-04-23 15:48 54.61090 -5.87807 19 ft 13 kts 237°
2026-04-23 15:48 54.61107 -5.87970 20 ft 18 kts 301°
2026-04-23 15:48 54.61210 -5.87972 19 ft 25 kts 35°
2026-04-23 15:48 54.61544 -5.87573 18 ft 86 kts 35°
2026-04-23 15:49 54.62145 -5.86863 138 ft 119 kts 43°
2026-04-23 15:49 54.62869 -5.85969 347 ft 144 kts 37°
2026-04-23 15:49 54.63895 -5.85385 385 ft 164 kts 10°
2026-04-23 15:49 54.64936 -5.84863 840 ft 153 kts 26°
2026-04-23 15:50 54.65926 -5.84191 1288 ft 155 kts 26°
2026-04-23 15:50 54.67028 -5.83375 835 ft 187 kts 40°
2026-04-23 15:50 54.68056 -5.82019 904 ft 180 kts 40°
2026-04-23 15:50 54.69066 -5.80772 1004 ft 178 kts 42°
2026-04-23 15:51 54.70073 -5.79558 1249 ft 171 kts 39°
2026-04-23 15:51 54.71027 -5.78464 1623 ft 162 kts 39°
2026-04-23 15:51 54.71945 -5.77465 2008 ft 152 kts 39°
2026-04-23 15:51 54.72840 -5.76519 2461 ft 151 kts 38°
2026-04-23 15:52 54.73612 -5.75397 2891 ft 139 kts 67°
2026-04-23 15:52 54.74048 -5.73912 3303 ft 141 kts 66°
2026-04-23 15:52 54.74589 -5.72468 3719 ft 144 kts 63°
2026-04-23 15:52 54.75159 -5.71015 4099 ft 147 kts 62°
2026-04-23 15:53 54.75743 -5.69551 4467 ft 149 kts 62°
2026-04-23 15:53 54.76336 -5.68069 4857 ft 150 kts 63°
2026-04-23 15:53 54.76922 -5.66567 5246 ft 151 kts 61°
2026-04-23 15:53 54.77514 -5.65053 5613 ft 153 kts 61°
2026-04-23 15:54 54.78112 -5.63533 5990 ft 153 kts 63°
2026-04-23 15:54 54.78709 -5.62004 6381 ft 153 kts 63°
2026-04-23 15:54 54.79280 -5.60456 6768 ft 151 kts 65°
2026-04-23 15:54 54.79668 -5.58792 7130 ft 149 kts 75°
2026-04-23 15:55 54.80004 -5.57107 7498 ft 147 kts 78°
2026-04-23 15:55 54.80318 -5.55421 7865 ft 147 kts 80°
2026-04-23 15:55 54.80629 -5.53729 8242 ft 147 kts 78°
2026-04-23 15:55 54.80955 -5.52051 8621 ft 147 kts 76°
2026-04-23 15:56 54.81287 -5.50372 8995 ft 147 kts 78°
2026-04-23 15:56 54.81628 -5.48702 9386 ft 147 kts 78°
2026-04-23 15:56 54.81979 -5.47042 9772 ft 147 kts 78°
2026-04-23 15:56 54.82325 -5.45380 10186 ft 146 kts 75°
2026-04-23 15:57 54.82664 -5.43721 10554 ft 146 kts 76°
2026-04-23 15:57 54.82990 -5.42059 10905 ft 145 kts 76°
2026-04-23 15:57 54.83318 -5.40408 11273 ft 144 kts 75°
2026-04-23 15:57 54.83649 -5.38768 11631 ft 144 kts 75°
2026-04-23 15:58 54.83981 -5.37121 11972 ft 145 kts 75°
2026-04-23 15:58 54.84317 -5.35467 12319 ft 146 kts 75°
2026-04-23 15:58 54.84655 -5.33808 12666 ft 146 kts 75°
2026-04-23 15:58 54.84995 -5.32138 13003 ft 147 kts 75°
2026-04-23 15:59 54.85338 -5.30456 13296 ft 152 kts 75°
2026-04-23 15:59 54.85706 -5.28633 13381 ft 168 kts 74°
2026-04-23 15:59 54.86111 -5.26636 13419 ft 181 kts 74°
2026-04-23 15:59 54.86537 -5.24544 13432 ft 190 kts 73°
2026-04-23 16:00 54.86989 -5.22325 13434 ft 195 kts 73°
2026-04-23 16:00 54.87443 -5.20091 13442 ft 198 kts 74°
2026-04-23 16:00 54.87893 -5.17856 13444 ft 199 kts 74°
2026-04-23 16:00 54.88547 -5.15740 13433 ft 205 kts 47°
2026-04-23 16:01 54.89740 -5.14392 13449 ft 206 kts 28°
2026-04-23 16:01 54.91031 -5.13329 13451 ft 205 kts 25°
2026-04-23 16:01 54.92329 -5.12320 13442 ft 204 kts 25°
2026-04-23 16:01 54.93621 -5.11306 13443 ft 203 kts 25°
2026-04-23 16:02 54.94899 -5.10247 13436 ft 203 kts 27°
2026-04-23 16:02 54.96165 -5.09166 13449 ft 203 kts 27°
2026-04-23 16:02 54.97429 -5.08077 13440 ft 203 kts 27°
2026-04-23 16:02 54.98691 -5.06988 13441 ft 201 kts 27°
2026-04-23 16:03 54.99935 -5.05909 13445 ft 200 kts 27°
2026-04-23 16:03 55.01188 -5.04821 13449 ft 202 kts 27°
2026-04-23 16:03 55.02448 -5.03725 13451 ft 203 kts 27°
2026-04-23 16:03 55.03719 -5.02621 13443 ft 204 kts 27°
2026-04-23 16:04 55.04990 -5.01519 13440 ft 204 kts 27°
2026-04-23 16:04 55.06259 -5.00418 13437 ft 204 kts 27°
2026-04-23 16:04 55.07490 -4.99342 13442 ft 190 kts 27°
2026-04-23 16:04 55.08667 -4.98317 13438 ft 188 kts 27°
2026-04-23 16:05 55.09441 -4.97647 13442 ft 187 kts 27°
2026-04-23 16:05 55.10998 -4.96293 13443 ft 187 kts 27°
2026-04-23 16:05 55.12160 -4.95278 13443 ft 187 kts 28°
2026-04-23 16:05 55.13320 -4.94259 13448 ft 187 kts 27°
2026-04-23 16:06 55.14468 -4.93241 13441 ft 189 kts 27°
2026-04-23 16:06 55.15643 -4.92190 13440 ft 190 kts 27°
2026-04-23 16:06 55.16821 -4.91142 13448 ft 190 kts 27°
2026-04-23 16:06 55.17994 -4.90114 13447 ft 188 kts 27°
2026-04-23 16:07 55.19084 -4.88899 13442 ft 185 kts 46°
2026-04-23 16:07 55.19951 -4.87240 13446 ft 185 kts 50°
2026-04-23 16:07 55.20807 -4.85559 13439 ft 185 kts 50°
2026-04-23 16:07 55.21668 -4.83888 13445 ft 184 kts 49°
2026-04-23 16:08 55.22527 -4.82219 13445 ft 185 kts 50°
2026-04-23 16:08 55.23386 -4.80549 13446 ft 185 kts 50°
2026-04-23 16:08 55.24247 -4.78878 13443 ft 184 kts 50°
2026-04-23 16:08 55.25098 -4.77198 13442 ft 184 kts 50°
2026-04-23 16:09 55.25952 -4.75529 13435 ft 184 kts 49°
2026-04-23 16:09 55.26804 -4.73863 13441 ft 182 kts 53°
2026-04-23 16:09 55.27322 -4.71864 13440 ft 180 kts 73°
2026-04-23 16:09 55.27755 -4.69797 13442 ft 181 kts 71°
2026-04-23 16:10 55.28072 -4.68435 13440 ft 182 kts 69°
2026-04-23 16:10 55.28597 -4.66408 13429 ft 182 kts 66°
2026-04-23 16:10 55.29163 -4.64416 13433 ft 183 kts 65°
2026-04-23 16:10 55.29740 -4.62434 13435 ft 182 kts 65°
2026-04-23 16:11 55.30319 -4.60452 13439 ft 183 kts 65°
2026-04-23 16:11 55.30900 -4.58467 13439 ft 183 kts 65°
2026-04-23 16:11 55.31480 -4.56477 13429 ft 183 kts 65°
2026-04-23 16:11 55.32058 -4.54489 13443 ft 183 kts 65°
2026-04-23 16:12 55.32636 -4.52494 13431 ft 183 kts 65°
2026-04-23 16:12 55.33214 -4.50498 13431 ft 183 kts 65°
2026-04-23 16:12 55.33793 -4.48501 13427 ft 183 kts 65°
2026-04-23 16:12 55.34370 -4.46509 13430 ft 183 kts 65°
2026-04-23 16:13 55.34946 -4.44515 13434 ft 183 kts 65°
2026-04-23 16:13 55.36103 -4.40503 13424 ft 186 kts 65°
2026-04-23 16:13 55.36691 -4.38467 13423 ft 187 kts 65°
2026-04-23 16:14 55.37280 -4.36423 13428 ft 187 kts 64°
2026-04-23 16:14 55.37866 -4.34384 13433 ft 187 kts 65°
2026-04-23 16:14 55.38456 -4.32341 13433 ft 188 kts 65°
2026-04-23 16:14 55.39050 -4.30283 13446 ft 189 kts 64°
2026-04-23 16:15 55.39636 -4.28241 13432 ft 189 kts 64°
2026-04-23 16:15 55.40228 -4.26177 13437 ft 189 kts 65°
2026-04-23 16:15 55.40821 -4.24112 13427 ft 189 kts 65°
2026-04-23 16:15 55.41411 -4.22048 13431 ft 188 kts 65°
2026-04-23 16:16 55.41998 -4.19988 13437 ft 188 kts 65°
2026-04-23 16:16 55.42591 -4.17928 13436 ft 189 kts 64°
2026-04-23 16:16 55.43188 -4.15872 13439 ft 189 kts 64°
2026-04-23 16:16 55.43788 -4.13809 13437 ft 189 kts 65°
2026-04-23 16:17 55.44384 -4.11754 13426 ft 187 kts 64°
2026-04-23 16:17 55.44975 -4.09710 13431 ft 187 kts 65°
2026-04-23 16:17 55.45570 -4.07663 13439 ft 188 kts 65°
2026-04-23 16:17 55.46151 -4.05640 13446 ft 186 kts 65°
2026-04-23 16:18 55.46733 -4.03604 13444 ft 186 kts 65°
2026-04-23 16:18 55.47313 -4.01567 13439 ft 186 kts 65°
2026-04-23 16:18 55.47893 -3.99529 13431 ft 186 kts 65°
2026-04-23 16:18 55.48470 -3.97500 13431 ft 185 kts 65°
2026-04-23 16:19 55.49041 -3.95476 13436 ft 184 kts 65°
2026-04-23 16:19 55.49617 -3.93444 13378 ft 188 kts 65°
2026-04-23 16:19 55.50206 -3.91362 13248 ft 187 kts 65°
2026-04-23 16:19 55.50757 -3.89401 13103 ft 171 kts 65°
2026-04-23 16:20 55.51267 -3.87568 12970 ft 162 kts 65°
2026-04-23 16:20 55.51753 -3.85809 12837 ft 157 kts 65°
2026-04-23 16:20 55.52228 -3.84100 12712 ft 153 kts 65°
2026-04-23 16:20 55.52697 -3.82425 12591 ft 151 kts 65°
2026-04-23 16:21 55.53162 -3.80763 12460 ft 150 kts 65°
2026-04-23 16:21 55.53624 -3.79118 12332 ft 149 kts 65°
2026-04-23 16:21 55.54085 -3.77483 12208 ft 148 kts 65°
2026-04-23 16:21 55.54542 -3.75857 12076 ft 148 kts 65°
2026-04-23 16:22 55.55001 -3.74221 11905 ft 151 kts 65°
2026-04-23 16:22 55.55476 -3.72521 11659 ft 157 kts 65°
2026-04-23 16:22 55.55966 -3.70768 11422 ft 161 kts 65°
2026-04-23 16:22 55.56464 -3.68984 11172 ft 163 kts 66°
2026-04-23 16:23 55.56966 -3.67184 10929 ft 164 kts 66°
2026-04-23 16:23 55.57473 -3.65378 10688 ft 164 kts 66°
2026-04-23 16:23 55.57974 -3.63590 10443 ft 165 kts 66°
2026-04-23 16:23 55.58482 -3.61772 10195 ft 165 kts 66°
2026-04-23 16:24 55.58993 -3.59935 9938 ft 164 kts 66°
2026-04-23 16:24 55.59490 -3.58147 9674 ft 164 kts 66°
2026-04-23 16:24 55.60024 -3.56370 9413 ft 164 kts 54°
2026-04-23 16:24 55.61007 -3.55461 9143 ft 164 kts
2026-04-23 16:25 55.62016 -3.56157 8886 ft 156 kts 313°
2026-04-23 16:25 55.62761 -3.57537 8648 ft 155 kts 310°
2026-04-23 16:25 55.63503 -3.58921 8401 ft 155 kts 309°
2026-04-23 16:25 55.64245 -3.60302 8139 ft 155 kts 311°
2026-04-23 16:26 55.65041 -3.61583 7886 ft 155 kts 316°
2026-04-23 16:26 55.65890 -3.62753 7648 ft 155 kts 321°
2026-04-23 16:26 55.66784 -3.63808 7401 ft 155 kts 325°
2026-04-23 16:26 55.67717 -3.64761 7154 ft 155 kts 329°
2026-04-23 16:27 55.68675 -3.65629 6914 ft 154 kts 331°
2026-04-23 16:27 55.69641 -3.66457 6668 ft 154 kts 331°
2026-04-23 16:27 55.70608 -3.67283 6414 ft 154 kts 331°
2026-04-23 16:27 55.71577 -3.68111 6154 ft 155 kts 331°
2026-04-23 16:28 55.72549 -3.68939 5902 ft 155 kts 331°
2026-04-23 16:28 55.73526 -3.69761 5656 ft 155 kts 333°
2026-04-23 16:28 55.74518 -3.70587 5392 ft 164 kts 332°
2026-04-23 16:28 55.75592 -3.71492 5146 ft 177 kts 332°
2026-04-23 16:29 55.76726 -3.72457 4882 ft 184 kts 332°
2026-04-23 16:29 55.77895 -3.73462 4664 ft 188 kts 332°
2026-04-23 16:29 55.79065 -3.74461 4555 ft 185 kts 332°
2026-04-23 16:29 55.80227 -3.75323 4487 ft 179 kts 348°
2026-04-23 16:30 55.81394 -3.74833 4485 ft 174 kts 35°
2026-04-23 16:30 55.82310 -3.73469 4482 ft 170 kts 46°
2026-04-23 16:30 55.83093 -3.71915 4475 ft 168 kts 53°
2026-04-23 16:30 55.83777 -3.70260 4466 ft 162 kts 58°
2026-04-23 16:31 55.84387 -3.68587 4343 ft 164 kts 60°
2026-04-23 16:31 55.84984 -3.66816 4086 ft 169 kts 63°
2026-04-23 16:31 55.85576 -3.64982 3860 ft 173 kts 62°
2026-04-23 16:31 55.86194 -3.63123 3624 ft 176 kts 62°
2026-04-23 16:32 55.86828 -3.61249 3380 ft 176 kts 62°
2026-04-23 16:32 55.87468 -3.59351 3115 ft 181 kts 62°
2026-04-23 16:32 55.88128 -3.57414 2842 ft 184 kts 61°
2026-04-23 16:32 55.88785 -3.55493 2569 ft 184 kts 60°
2026-04-23 16:33 55.89449 -3.53545 2290 ft 184 kts 61°
2026-04-23 16:33 55.90104 -3.51602 2012 ft 182 kts 60°
2026-04-23 16:33 55.90691 -3.49845 1771 ft 146 kts 60°
2026-04-23 16:33 55.91175 -3.48436 1533 ft 122 kts 60°
2026-04-23 16:34 55.91596 -3.47238 1336 ft 107 kts 59°
2026-04-23 16:34 55.91963 -3.46178 1150 ft 94 kts 59°
2026-04-23 16:34 55.92285 -3.45226 993 ft 85 kts 61°
2026-04-23 16:34 55.92588 -3.44367 847 ft 86 kts 60°
2026-04-23 16:35 55.92915 -3.43424 777 ft 94 kts 59°
2026-04-23 16:35 55.93279 -3.42377 672 ft 104 kts 58°
2026-04-23 16:35 55.93670 -3.41241 532 ft 111 kts 60°
2026-04-23 16:35 55.94077 -3.40017 372 ft 118 kts 60°
2026-04-23 16:36 55.94496 -3.38741 167 ft 121 kts 60°
2026-04-23 16:36 55.94827 -3.37761 105 ft 44 kts 58°
2026-04-23 16:36 55.95048 -3.37111 103 ft 73 kts 58°
2026-04-23 16:36 55.95263 -3.36481 103 ft 11 kts 65°
2026-04-23 16:37 55.95244 -3.36403 102 ft 11 kts 146°
2026-04-23 16:37 55.95188 -3.36347 103 ft 0 kts 149°
2026-04-23 16:37 55.95177 -3.36334 103 ft 11 kts 149°
2026-04-23 16:38 55.95162 -3.36321 104 ft 10 kts 156°
2026-04-23 16:38 55.95102 -3.36372 104 ft 13 kts 232°
2026-04-23 16:38 55.95044 -3.36386 104 ft 8 kts 167°
2026-04-23 16:38 55.95005 -3.36427 104 ft 9 kts 236°
2026-04-23 16:39 55.94969 -3.36533 104 ft 8 kts 238°
2026-04-23 16:39 55.94945 -3.36540 104 ft 3 kts 157°
2026-04-23 16:39 55.94926 -3.36520 104 ft 0 kts 149°
2026-04-23 16:39 55.94911 -3.36504 102 ft 4 kts 148°
2026-04-23 16:40 55.94901 -3.36493 103 ft 0 kts 148°